DW4679 Weather Reports


time (UTC)temp
F
wind
direction
speed
knots
gust
knots
rain 1hr
in
rain 24hr
in
rain mn
in
humidity
%
barometer
mb
20260507161551 62 182 2.6 5.2 0.00 0.00 0.00 79 1016.3
20260507161043 63 200 3.5 4.3 0.00 0.00 0.00 78 1016.2
20260507160536 59 165 0.0 4.3 0.00 0.00 0.00 84 1016.2
20260507160028 59 12 1.7 4.3 0.00 0.00 0.00 86 1016.1
20260507155519 59 271 3.5 4.3 0.00 0.00 0.00 86 1016.3
20260507155011 60 225 1.7 3.5 0.00 0.00 0.00 86 1016.2
20260507154503 59 175 1.7 2.6 0.00 0.00 0.00 86 1016.2
20260507153956 59 50 0.9 3.5 0.00 0.00 0.00 87 1016.0
20260507153718 59 249 0.0 3.5 0.00 0.00 0.00 88 1016.3
20260507152939 59 114 2.6 3.5 0.00 0.00 0.00 88 1016.1
20260507152432 58 127 1.7 3.5 0.00 0.00 0.00 89 1015.9
20260507151923 58 211 1.7 3.5 0.00 0.00 0.00 89 1015.9
20260507151647 58 324 0.9 3.5 0.00 0.00 0.00 91 1016.0
20260507151138 58 114 1.7 3.5 0.00 0.00 0.00 92 1016.2
20260507150400 57 49 1.7 2.6 0.00 0.00 0.00 92 1016.0
20260507145851 57 186 0.0 2.6 0.00 0.00 0.00 92 1016.2
20260507145345 57 73 0.9 2.6 0.00 0.00 0.00 93 1015.9
20260507144835 57 119 0.9 1.7 0.00 0.00 0.00 94 1016.0
20260507144327 57 152 0.9 1.7 0.00 0.00 0.00 94 1015.9
20260507143819 56 326 0.0 1.7 0.00 0.00 0.00 94 1015.9
20260507143311 56 227 0.0 3.5 0.00 0.00 0.00 95 1015.7
20260507142805 56 345 0.0 3.5 0.00 0.00 0.00 95 1015.9
20260507142246 56 85 1.7 1.7 0.00 0.00 0.00 95 1015.8
20260507141737 56 199 0.0 1.7 0.00 0.00 0.00 95 1015.8
20260507141232 56 68 0.0 1.7 0.00 0.00 0.00 95 1015.6
20260507140212 56 184 1.7 2.6 0.00 0.00 0.00 96 1015.7
20260507135704 56 180 1.7 2.6 0.00 0.00 0.00 96 1015.6
20260507135159 56 167 0.9 2.6 0.00 0.00 0.00 96 1015.7
20260507134648 55 119 1.7 2.6 0.00 0.00 0.00 96 1015.4
20260507134143 55 151 1.7 2.6 0.00 0.00 0.00 96 1015.3
20260507133632 55 112 0.0 2.6 0.00 0.00 0.00 96 1015.6
20260507133124 55 113 1.7 3.5 0.00 0.00 0.00 96 1015.6
20260507132616 55 152 1.7 3.5 0.00 0.00 0.00 96 1015.5
20260507132110 55 134 1.7 2.6 0.00 0.00 0.00 96 1015.6
20260507131600 55 151 2.6 2.6 0.00 0.00 0.00 96 1015.4
20260507131323 55 133 0.9 2.6 0.00 0.00 0.00 96 1015.6
20260507130815 55 149 1.7 2.6 0.00 0.00 0.00 96 1015.5
20260507130037 55 143 1.7 2.6 0.00 0.00 0.00 96 1015.4
20260507125528 55 146 1.7 2.6 0.00 0.00 0.00 96 1015.3
20260507125020 55 177 1.7 3.5 0.00 0.00 0.00 96 1015.4
20260507124513 55 161 1.7 3.5 0.00 0.00 0.00 96 1015.3
20260507124004 55 141 2.6 2.6 0.00 0.00 0.00 96 1015.2
20260507123456 55 178 0.9 2.6 0.00 0.00 0.00 96 1015.2
20260507123219 55 141 2.6 3.5 0.00 0.00 0.00 96 1015.2
20260507122711 54 169 1.7 3.5 0.00 0.00 0.00 96 1015.1
20260507121932 54 133 2.6 3.5 0.00 0.00 0.00 96 1015.4
20260507121424 54 194 1.7 3.5 0.00 0.00 0.00 96 1015.2
20260507120918 54 132 3.5 3.5 0.00 0.00 0.00 96 1015.3
20260507120410 54 131 1.7 2.6 0.00 0.00 0.00 95 1015.1
20260507115903 54 145 1.7 1.7 0.00 0.00 0.00 96 1015.1
20260507115353 54 148 0.9 2.6 0.00 0.00 0.00 96 1015.2
20260507114845 54 151 1.7 3.5 0.00 0.00 0.00 95 1015.3
20260507114336 54 148 1.7 3.5 0.00 0.00 0.00 95 1015.1
20260507113830 55 137 2.6 3.5 0.00 0.00 0.00 95 1015.2
20260507113320 55 149 2.6 3.5 0.00 0.00 0.00 96 1015.3
20260507112813 55 155 2.6 3.5 0.00 0.00 0.00 96 1015.1
20260507112307 55 141 2.6 3.5 0.00 0.00 0.00 95 1015.0
20260507112027 55 151 1.7 3.5 0.00 0.00 0.00 96 1015.3
20260507111251 55 152 1.7 2.6 0.00 0.00 0.00 96 1015.3
20260507110743 55 136 2.6 2.6 0.00 0.00 0.00 95 1015.2
20260507110235 55 175 1.7 2.6 0.00 0.00 0.00 96 1015.1
20260507105724 55 141 2.6 2.6 0.00 0.00 0.00 96 1015.5
20260507105217 55 138 1.7 2.6 0.00 0.00 0.00 95 1015.5
20260507104711 55 148 1.7 2.6 0.00 0.00 0.00 95 1015.4
20260507103924 54 139 2.6 2.6 0.00 0.00 0.00 95 1015.4
20260507103144 55 156 1.7 2.6 0.00 0.00 0.00 95 1015.3
20260507102636 55 140 1.7 3.5 0.00 0.00 0.00 95 1015.7
20260507102129 55 144 2.6 3.5 0.00 0.00 0.00 95 1015.6
20260507101622 55 157 1.7 3.5 0.00 0.00 0.00 94 1015.5
20260507101344 55 169 1.7 3.5 0.00 0.00 0.00 95 1015.6
20260507100605 54 138 2.6 3.5 0.00 0.00 0.00 94 1015.8
20260507100057 54 153 1.7 1.7 0.00 0.00 0.00 94 1015.6
20260507095551 55 143 1.7 1.7 0.00 0.00 0.00 94 1015.7
20260507095312 55 177 0.9 1.7 0.00 0.00 0.00 94 1015.8
20260507094532 55 176 1.7 2.6 0.00 0.00 0.00 94 1015.8
20260507094025 55 172 0.9 2.6 0.00 0.00 0.00 94 1015.9
20260507093748 55 143 1.7 2.6 0.00 0.00 0.00 94 1015.9
20260507093242 55 140 1.7 2.6 0.00 0.00 0.00 94 1016.1
20260507091952 56 145 1.7 2.6 0.00 0.00 0.00 94 1016.0
20260507091445 56 143 1.7 2.6 0.00 0.00 0.00 93 1015.8
20260507091208 56 132 2.6 2.6 0.00 0.00 0.00 93 1016.0
20260507090428 56 156 1.7 2.6 0.00 0.00 0.00 94 1016.0
20260507085920 57 178 1.7 3.5 0.00 0.00 0.00 94 1016.1
20260507085644 56 176 1.7 3.5 0.00 0.00 0.00 94 1016.1
20260507085136 56 144 2.6 2.6 0.00 0.00 0.00 94 1016.1
20260507084356 56 160 1.7 3.5 0.00 0.00 0.00 94 1016.3
20260507083851 56 165 1.7 3.5 0.00 0.00 0.00 94 1016.1
20260507083612 56 163 1.7 3.5 0.00 0.00 0.00 94 1016.4
20260507082834 56 163 2.6 3.5 0.00 0.00 0.00 94 1016.5
20260507082326 56 178 1.7 3.5 0.00 0.00 0.00 94 1016.3
20260507081818 56 147 2.6 2.6 0.00 0.00 0.00 93 1016.4
20260507081541 56 152 1.7 1.7 0.00 0.00 0.00 93 1016.4
20260507080801 56 159 1.7 1.7 0.00 0.00 0.00 93 1016.4
20260507080253 56 157 0.9 1.7 0.00 0.00 0.00 92 1016.5
20260507075746 57 159 0.9 1.7 0.00 0.00 0.00 93 1016.5
20260507075508 57 161 1.7 1.7 0.00 0.00 0.00 93 1016.5
20260507074730 57 207 1.7 1.7 0.00 0.00 0.00 93 1016.7
20260507074224 57 172 1.7 1.7 0.00 0.00 0.00 93 1016.6
20260507073713 57 199 0.9 1.7 0.00 0.00 0.00 93 1016.9
20260507073205 57 183 1.7 1.7 0.00 0.00 0.00 92 1016.6
20260507072658 57 193 1.7 3.5 0.00 0.00 0.00 93 1016.6
20260507072149 57 180 1.7 3.5 0.00 0.00 0.00 92 1016.7
20260507071640 57 158 1.7 3.5 0.00 0.00 0.00 92 1016.7
20260507071132 57 169 1.7 3.5 0.00 0.00 0.00 92 1016.8
20260507070624 57 129 2.6 3.5 0.00 0.00 0.00 91 1016.5
20260507070116 57 156 0.0 1.7 0.00 0.00 0.00 91 1016.7
20260507065611 57 166 0.9 1.7 0.00 0.00 0.00 91 1016.8
20260507065100 58 173 0.0 1.7 0.00 0.00 0.00 91 1016.8
20260507064552 57 162 0.9 1.7 0.00 0.00 0.00 91 1016.7
20260507064047 58 137 1.7 1.7 0.00 0.00 0.00 91 1016.9
20260507063538 58 177 0.9 1.7 0.00 0.00 0.00 91 1017.0
20260507063028 58 203 1.7 1.7 0.00 0.00 0.00 91 1016.8
20260507062523 58 188 1.7 1.7 0.00 0.00 0.00 92 1016.9
20260507062014 58 174 1.7 1.7 0.00 0.00 0.00 92 1016.8
20260507061735 58 167 1.7 1.7 0.00 0.00 0.00 92 1016.9
20260507060957 58 180 1.7 1.7 0.00 0.00 0.00 92 1017.0
20260507060450 58 199 1.7 1.7 0.00 0.00 0.00 91 1016.8
20260507055941 58 163 0.9 2.6 0.00 0.00 0.00 91 1016.7
20260507055432 58 172 1.7 2.6 0.00 0.00 0.00 91 1017.0
20260507054926 58 200 1.7 1.7 0.00 0.00 0.00 90 1017.0
20260507054417 58 162 1.7 2.6 0.00 0.00 0.00 90 1016.6
20260507053908 59 205 1.7 2.6 0.00 0.00 0.00 90 1016.6
20260507053400 59 231 2.6 2.6 0.00 0.00 0.00 90 1016.8
20260507053124 58 210 2.6 2.6 0.00 0.00 0.00 90 1016.8
20260507052344 58 181 1.7 2.6 0.00 0.00 0.00 89 1016.7
20260507051328 58 216 1.7 2.6 0.00 0.00 0.00 89 1016.9
20260507050820 58 211 1.7 2.6 0.00 0.00 0.00 89 1016.7
20260507050316 59 186 1.7 1.7 0.00 0.00 0.00 88 1017.0
20260507045805 59 235 0.0 1.7 0.00 0.00 0.00 88 1016.7
20260507045256 59 210 0.9 2.6 0.00 0.00 0.00 88 1016.8
20260507045022 59 190 0.9 2.6 0.00 0.00 0.00 88 1016.6
20260507044242 59 218 1.7 2.6 0.00 0.00 0.00 88 1016.8
20260507044003 59 152 1.7 2.6 0.00 0.00 0.00 87 1016.8
20260507043229 59 166 1.7 3.5 0.00 0.00 0.00 86 1016.8
20260507042716 59 180 1.7 3.5 0.00 0.00 0.00 86 1016.7
20260507042208 59 224 2.6 3.5 0.00 0.00 0.00 86 1016.5
20260507041701 59 172 1.7 3.5 0.00 0.00 0.00 85 1016.6
20260507041153 59 255 1.7 3.5 0.00 0.00 0.00 86 1016.5
20260507040644 60 187 1.7 2.6 0.00 0.00 0.00 85 1016.5
20260507040136 60 217 1.7 2.6 0.00 0.00 0.00 85 1016.5
20260507035629 60 234 0.0 2.6 0.00 0.00 0.00 86 1016.6
20260507035123 60 157 1.7 3.5 0.00 0.00 0.00 85 1016.4
20260507034613 60 132 0.9 4.3 0.00 0.00 0.00 85 1016.4
20260507034104 60 263 0.9 4.3 0.00 0.00 0.00 86 1016.3
20260507033827 60 245 1.7 4.3 0.00 0.00 0.00 85 1016.4
20260507033048 60 229 1.7 4.3 0.00 0.00 0.00 85 1016.3
20260507032543 60 212 1.7 4.3 0.00 0.00 0.00 85 1016.1
20260507032034 61 189 1.7 3.5 0.00 0.00 0.00 84 1016.3
20260507031526 61 265 3.5 4.3 0.00 0.00 0.00 83 1015.9
20260507031247 61 251 1.7 5.2 0.00 0.00 0.00 82 1016.1
20260507030508 61 255 1.7 5.2 0.00 0.00 0.00 82 1016.0
20260507030003 61 273 1.7 5.2 0.00 0.00 0.00 81 1016.0
20260507025452 62 254 2.6 6.1 0.00 0.00 0.00 80 1016.0
20260507024944 62 221 1.7 6.1 0.00 0.00 0.00 79 1015.9
20260507024436 62 216 0.0 5.2 0.00 0.00 0.00 79 1016.0
20260507023929 62 281 1.7 7.8 0.00 0.00 0.00 78 1015.8
20260507023420 62 230 2.6 8.7 0.00 0.00 0.00 78 1015.7
20260507022912 63 245 4.3 8.7 0.00 0.00 0.00 76 1015.7
20260507022406 63 267 3.5 8.7 0.00 0.00 0.00 75 1015.6
20260507021856 64 232 3.5 6.1 0.00 0.00 0.00 74 1015.7
20260507021349 64 255 1.7 7.0 0.00 0.00 0.00 71 1015.7
20260507020841 64 226 2.6 7.0 0.00 0.00 0.00 70 1015.8
20260507020332 64 329 0.0 7.0 0.00 0.00 0.00 71 1015.4
20260507015824 65 272 4.3 7.0 0.00 0.00 0.00 69 1015.7
20260507015317 65 232 1.7 7.8 0.00 0.00 0.00 68 1015.5
20260507014809 65 253 3.5 7.8 0.00 0.00 0.00 70 1015.6
20260507014300 65 208 1.7 8.7 0.00 0.00 0.00 70 1015.4
20260507013752 65 297 6.1 8.7 0.00 0.00 0.00 71 1015.5
20260507013244 65 277 3.5 9.6 0.00 0.00 0.00 69 1015.4
20260507012736 65 252 6.1 9.6 0.00 0.00 0.00 71 1015.6
20260507012231 65 259 4.3 9.6 0.00 0.00 0.00 69 1015.7
20260507011720 66 276 7.0 9.6 0.00 0.00 0.00 67 1015.6
20260507011215 66 257 7.0 10.4 0.00 0.00 0.00 66 1015.5
20260507010704 66 291 5.2 11.3 0.00 0.00 0.00 66 1015.5
20260507010156 66 320 0.0 11.3 0.00 0.00 0.00 65 1015.4
20260507005411 67 282 6.1 9.6 0.00 0.00 0.00 63 1015.5
20260507004632 66 264 5.2 9.6 0.00 0.00 0.00 64 1015.4
20260507004124 66 240 2.6 9.6 0.00 0.00 0.00 65 1015.5
20260507003617 67 285 7.0 10.4 0.00 0.00 0.00 63 1015.5
20260507003110 66 294 3.5 11.3 0.00 0.00 0.00 62 1015.6
20260507002600 66 258 3.5 13.0 0.00 0.00 0.00 62 1015.2
20260507002052 67 295 8.7 13.0 0.00 0.00 0.00 60 1015.2
20260507001815 67 278 2.6 12.2 0.00 0.00 0.00 61 1015.1
20260507001036 66 266 3.5 12.2 0.00 0.00 0.00 62 1015.2
20260507000534 66 337 7.8 11.3 0.00 0.00 0.00 63 1015.3
20260507000020 66 232 3.5 13.0 0.00 0.00 0.00 63 1015.2
20260506235514 67 305 6.1 13.0 0.00 0.00 0.00 63 1015.1
20260506235005 67 273 5.2 11.3 0.00 0.00 0.00 61 1015.2
20260506234500 66 246 1.7 12.2 0.00 0.00 0.00 61 1015.1
20260506233950 67 261 8.7 12.2 0.00 0.00 0.00 63 1015.3
20260506233443 66 328 4.3 13.9 0.00 0.00 0.00 63 1015.2
20260506233203 66 267 7.0 13.9 0.00 0.00 0.00 65 1015.0
20260506232655 67 244 5.2 11.3 0.00 0.00 0.00 62 1015.1
20260506231916 67 288 1.7 11.3 0.00 0.00 0.00 64 1015.2
20260506231408 67 288 7.8 12.2 0.00 0.00 0.00 65 1015.4
20260506230900 66 295 5.2 12.2 0.00 0.00 0.00 66 1015.4
20260506230353 66 273 7.0 13.0 0.00 0.00 0.00 67 1015.3
20260506230115 66 284 6.1 13.0 0.00 0.00 0.00 66 1015.4
20260506225336 67 237 7.8 13.0 0.00 0.00 0.00 64 1015.3
20260506224828 67 315 6.1 13.0 0.00 0.00 0.00 65 1015.5
20260506224551 66 244 6.1 12.2 0.00 0.00 0.00 65 1015.3
20260506224044 66 252 4.3 13.9 0.00 0.00 0.00 66 1015.6
20260506223306 66 267 7.8 13.9 0.00 0.00 0.00 65 1015.6
20260506222756 66 252 7.0 13.0 0.00 0.00 0.00 66 1015.5
20260506222251 66 222 5.2 13.9 0.00 0.00 0.00 65 1015.6
20260506221740 67 317 11.3 13.0 0.00 0.00 0.00 64 1015.5
20260506221232 67 266 3.5 13.9 0.00 0.00 0.00 64 1015.5
20260506220724 67 295 6.1 13.9 0.00 0.00 0.00 64 1015.7
20260506220217 67 249 6.1 12.2 0.00 0.00 0.00 63 1015.9
20260506215709 67 302 5.2 12.2 0.00 0.00 0.00 64 1015.9
20260506215202 67 314 2.6 11.3 0.00 0.00 0.00 63 1015.6
20260506214652 68 224 5.2 11.3 0.00 0.00 0.00 63 1015.8
20260506214144 67 272 6.1 13.0 0.00 0.00 0.00 63 1015.9
20260506213639 67 315 7.8 13.0 0.00 0.00 0.00 63 1015.7
20260506213129 67 260 8.7 12.2 0.00 0.00 0.00 63 1015.9
20260506212620 67 263 4.3 12.2 0.00 0.00 0.00 62 1015.9
20260506212112 67 240 4.3 12.2 0.00 0.00 0.00 63 1016.1
20260506211604 67 296 7.8 12.2 0.00 0.00 0.00 63 1016.0
20260506211057 67 237 5.2 12.2 0.00 0.00 0.00 63 1015.8
20260506210549 67 315 6.1 13.9 0.00 0.00 0.00 62 1015.9
20260506210040 67 314 9.6 13.9 0.00 0.00 0.00 62 1016.0
20260506205532 67 305 7.0 11.3 0.00 0.00 0.00 62 1016.0
20260506205026 67 308 6.1 13.0 0.00 0.00 0.00 61 1016.2
20260506204517 68 275 7.8 13.9 0.00 0.00 0.00 61 1015.8
20260506204008 68 337 8.7 15.6 0.00 0.00 0.00 61 1015.9
20260506203731 67 311 7.8 15.6 0.00 0.00 0.00 63 1015.9
20260506202954 68 314 6.1 13.9 0.00 0.00 0.00 62 1015.9
20260506202718 68 248 7.8 15.6 0.00 0.00 0.00 61 1016.0
20260506202210 68 311 9.6 15.6 0.00 0.00 0.00 60 1016.0
20260506201428 68 279 5.2 13.0 0.00 0.00 0.00 62 1016.0
20260506200921 68 238 5.2 13.0 0.00 0.00 0.00 61 1016.2
20260506200413 68 290 6.1 11.3 0.00 0.00 0.00 60 1016.0
20260506195905 69 258 6.1 12.2 0.00 0.00 0.00 59 1016.2
20260506195359 69 349 2.6 12.2 0.00 0.00 0.00 58 1016.2
20260506194340 69 232 0.0 9.6 0.00 0.00 0.00 58 1016.4
20260506193835 69 300 2.6 9.6 0.00 0.00 0.00 57 1016.7
20260506193325 68 259 1.7 11.3 0.00 0.00 0.00 59 1016.5
20260506193047 69 264 7.0 11.3 0.00 0.00 0.00 59 1016.4
20260506192311 68 234 3.5 8.7 0.00 0.00 0.00 59 1016.7
20260506191802 67 15 0.9 7.8 0.00 0.00 0.00 59 1016.6
20260506191252 67 211 4.3 9.6 0.00 0.00 0.00 61 1016.8
20260506190745 68 256 5.2 9.6 0.00 0.00 0.00 60 1016.6
20260506190238 68 278 5.2 9.6 0.00 0.00 0.00 59 1016.6
20260506185729 67 257 2.6 10.4 0.00 0.00 0.00 60 1016.6
20260506185222 67 306 7.0 10.4 0.00 0.00 0.00 60 1016.7
20260506184712 68 8 4.3 9.6 0.00 0.00 0.00 59 1017.0
20260506184206 68 250 3.5 8.7 0.00 0.00 0.00 60 1017.2
20260506183659 66 322 2.6 10.4 0.00 0.00 0.00 60 1016.9
20260506183149 67 102 0.9 10.4 0.00 0.00 0.00 61 1017.2
20260506182641 67 300 5.2 8.7 0.00 0.00 0.00 60 1017.1
20260506182132 66 219 0.9 8.7 0.00 0.00 0.00 61 1017.1
20260506181624 66 109 2.6 7.8 0.00 0.00 0.00 59 1017.3
20260506181118 66 311 6.1 7.8 0.00 0.00 0.00 60 1017.2
20260506180608 64 74 0.0 8.7 0.00 0.00 0.00 60 1017.3
20260506175824 66 338 2.6 10.4 0.00 0.00 0.00 60 1017.2
20260506175045 66 237 2.6 10.4 0.00 0.00 0.00 61 1017.4
20260506174537 67 308 4.3 7.8 0.00 0.00 0.00 60 1017.2
20260506174259 66 80 2.6 8.7 0.00 0.00 0.00 60 1017.3
20260506173751 66 261 3.5 9.6 0.00 0.00 0.00 60 1017.4
20260506173012 66 292 4.3 9.6 0.00 0.00 0.00 60 1017.6
20260506172506 65 277 4.3 7.8 0.00 0.00 0.00 62 1017.5
20260506171958 64 139 0.9 8.7 0.00 0.00 0.00 64 1017.7
20260506171449 64 285 1.7 8.7 0.00 0.00 0.00 65 1017.8
20260506170942 65 271 2.6 9.6 0.00 0.00 0.00 65 1017.7
20260506170433 65 272 7.8 9.6 0.00 0.00 0.00 64 1017.4
20260506165924 64 275 3.5 8.7 0.00 0.00 0.00 64 1017.8
20260506165418 62 205 1.7 8.7 0.00 0.00 0.00 65 1017.7
20260506164909 62 155 2.6 8.7 0.00 0.00 0.00 66 1017.7
20260506164401 61 337 1.7 8.7 0.00 0.00 0.00 68 1017.6
20260506163852 61 183 1.7 7.8 0.00 0.00 0.00 67 1017.6
20260506163345 61 232 5.2 7.8 0.00 0.00 0.00 67 1017.7
20260506162838 62 227 2.6 7.0 0.00 0.00 0.00 68 1017.9
20260506162559 63 291 5.2 7.0 0.00 0.00 0.00 66 1017.9
20260506161820 62 207 1.7 4.3 0.00 0.00 0.00 67 1017.8